Flag for Germany Weather past 2 weeks in Geislingen an der Steige, Baden-Württemberg, Germany

Now
55 °F

Scattered clouds.


Feels Like: 54 °F
Forecast: 46 / 67 °F
Wind: 6 mph from West

Location: Stoetten

Current Time: Jul 29, 2015 at 8:30:05 PM

Latest Report: Jul 29, 2015 at 8:00 PM


Visibility: 25 mi

Pressure: 29.90 "Hg

Humidity: 75%

Dew point: 47 °F

Location of Geislingen an der SteigeLocation

Historic Weather in Geislingen an der Steige — Graph

°F

Geislingen an der Steige temperature yesterday

Maximum temperature yesterday: 67 °F (at 3:00 PM)
Minimum temperature yesterday: 54 °F (at 11:00 PM)
Average temperature yesterday: 60 °F

Past Weeks' High & Low Weather Summary

 TemperatureHumidityPressure
High89 °F (Jul 22, 2:00 PM)100% (Jul 23, 4:00 AM)30.14 "Hg (Jul 23, 4:00 AM)
Low46 °F (Jul 26, 5:00 AM)28% (Jul 17, 12:00 PM)29.67 "Hg (Jul 24, 7:00 PM)
Average67 °F65%29.92 "Hg
* Reported Jul 14 7:00 PM — Jul 29 7:00 PM, Geislingen an der Steige, Weather by CustomWeather, © 2015

Note: Actual official high and low records may vary slightly from our data, if they occured in-between our weather recording intervals... More about our weather records

Advertising

Geislingen an der Steige weather history for previous 24 hours

 ConditionsComfort  
Time TempWeatherWind HumidityBarometerVisibility
7:00 PM
Wed, Jul 29
54 °FScattered clouds.8 mph94%29.88 "HgN/A
6:00 PM52 °FLow clouds.6 mph100%29.90 "Hg3 mi
5:00 PM51 °FRain. Low clouds.8 mph99%29.89 "Hg1 mi
4:00 PM52 °FDrizzle. Low clouds.5 mph100%29.86 "Hg1 mi
3:00 PM54 °FDrizzle. Low clouds.6 mph99%29.83 "Hg2 mi
2:00 PM56 °FLight rain. Overcast.5 mph95%29.82 "Hg8 mi
1:00 PM58 °FOvercast.3 mph76%29.80 "Hg37 mi
12:00 PM58 °FOvercast.3 mph75%29.80 "Hg37 mi
11:00 AM58 °FOvercast.3 mph76%29.81 "Hg37 mi
10:00 AM55 °FSprinkles. Partly sunny.3 mph82%29.84 "Hg25 mi
9:00 AM53 °FOvercast.3 mph91%29.86 "Hg28 mi
8:00 AM52 °FOvercast.5 mph95%29.89 "Hg25 mi
7:00 AM51 °FOvercast.3 mph96%29.90 "Hg25 mi
6:00 AM50 °FOvercast.3 mph95%29.91 "Hg9 mi
5:00 AM50 °FOvercast.3 mph98%29.91 "Hg7 mi
4:00 AM49 °FOvercast.1 mph99%29.92 "Hg9 mi
3:00 AM49 °FOvercast.2 mph98%29.93 "Hg6 mi
2:00 AM49 °FLight rain. Overcast.5 mph94%29.94 "Hg8 mi
1:00 AM51 °FDrizzle. Overcast.5 mph94%29.94 "Hg8 mi
11:00 PM
Tue, Jul 28
54 °FLight rain. Overcast.3 mph84%29.90 "Hg9 mi
10:00 PM55 °FLight rain. Overcast.2 mph81%29.87 "Hg16 mi
9:00 PM57 °FLight rain. Overcast.5 mph70%29.86 "Hg4 mi
8:00 PM60 °FOvercast.5 mph58%29.83 "Hg37 mi
Weather by CustomWeather, © 2015

See weather overviewHow to use our weather pages